Location: Beetenbrück
(52.8113°N, 9.5946°E)
Time: 21:56:49
(UTC+00:00)

Cosmos 1378 Rocket - Pass Details

Date: 14 April 2026
Orbit: 594 x 619 km, 82.5° (Epoch: 12 May)

Event Time Altitude Azimuth Distance (km) Brightness Sun altitude
Rises 20:35:28 0° 345° (NNW) 2,908 8.1 -18.2°
Reaches altitude 10° 20:37:44 10° 341° (NNW) 1,995 7.2 -18.4°
Maximum altitude 20:42:02 54° 265° (W) 755 4.1 -18.9°
Enters shadow 20:44:30 24° 197° (SSW) 1,294 4.9 -19.1°
